Year,Month,Day,Hour,Minute,Value (Times are PST for windspeed in km/hr)
2009,06,04,07,32,0.00
2009,06,04,07,33,0.00
2009,06,04,07,34,0.00
2009,06,04,07,35,0.00
2009,06,04,07,36,0.00
2009,06,04,07,37,0.00
2009,06,04,07,38,0.00
2009,06,04,07,39,0.00
2009,06,04,07,40,0.00
2009,06,04,07,41,0.00
2009,06,04,07,42,0.00
2009,06,04,07,43,0.00
2009,06,04,07,44,0.00
2009,06,04,07,45,0.00
2009,06,04,07,46,0.00
2009,06,04,07,47,0.00
2009,06,04,07,48,0.00
2009,06,04,07,49,0.00
2009,06,04,07,50,0.00
2009,06,04,07,51,0.00
2009,06,04,07,52,0.00
2009,06,04,07,53,0.00
2009,06,04,07,54,0.00
2009,06,04,07,55,0.20
2009,06,04,07,56,0.00
2009,06,04,07,57,0.00
2009,06,04,07,58,0.00
2009,06,04,07,59,0.00
2009,06,04,08,00,0.00
2009,06,04,08,01,0.00
2009,06,04,08,02,0.00
2009,06,04,08,03,0.00
2009,06,04,08,04,0.00
2009,06,04,08,05,0.00
2009,06,04,08,06,0.00
2009,06,04,08,07,0.00
2009,06,04,08,08,0.20
2009,06,04,08,09,0.00
2009,06,04,08,10,0.00
2009,06,04,08,11,0.00
2009,06,04,08,12,0.00
2009,06,04,08,13,0.00
2009,06,04,08,14,0.00
2009,06,04,08,15,0.00
2009,06,04,08,16,0.00
2009,06,04,08,17,0.00
2009,06,04,08,18,0.00
2009,06,04,08,19,0.00
2009,06,04,08,20,0.00
2009,06,04,08,21,0.00
2009,06,04,08,22,0.00
2009,06,04,08,23,0.00
2009,06,04,08,24,0.00
2009,06,04,08,25,0.00
2009,06,04,08,26,0.00
2009,06,04,08,27,0.00
2009,06,04,08,28,0.00
2009,06,04,08,29,0.00
2009,06,04,08,30,0.00
2009,06,04,08,31,0.00
2009,06,04,08,32,0.00
2009,06,04,08,33,0.00
2009,06,04,08,34,0.00
2009,06,04,08,35,0.00
2009,06,04,08,36,0.00
2009,06,04,08,37,0.00
2009,06,04,08,38,0.00
2009,06,04,08,39,0.00
2009,06,04,08,40,0.00
2009,06,04,08,41,0.00
2009,06,04,08,42,0.00
2009,06,04,08,43,0.00
2009,06,04,08,44,0.30
2009,06,04,08,45,0.20
2009,06,04,08,46,0.00
2009,06,04,08,47,0.20
2009,06,04,08,48,0.00
2009,06,04,08,49,0.00
2009,06,04,08,50,0.00
2009,06,04,08,51,0.00
2009,06,04,08,52,0.00
2009,06,04,08,53,0.00
2009,06,04,08,54,0.00
2009,06,04,08,55,0.00
2009,06,04,08,56,0.10
2009,06,04,08,57,0.00
2009,06,04,08,58,0.30
2009,06,04,08,59,0.20
2009,06,04,09,00,0.00
2009,06,04,09,01,0.00
2009,06,04,09,02,0.00
2009,06,04,09,03,0.00
2009,06,04,09,04,0.00
2009,06,04,09,05,0.10
2009,06,04,09,06,0.00
2009,06,04,09,07,0.00
2009,06,04,09,08,0.10
2009,06,04,09,09,0.00
2009,06,04,09,10,0.00
2009,06,04,09,11,0.00
2009,06,04,09,12,0.00
2009,06,04,09,13,0.00
2009,06,04,09,14,0.00
2009,06,04,09,15,0.00
2009,06,04,09,16,0.00
2009,06,04,09,17,0.00
2009,06,04,09,18,0.00
2009,06,04,09,19,0.00
2009,06,04,09,20,0.00
2009,06,04,09,21,0.00
2009,06,04,09,22,0.00
2009,06,04,09,23,0.00
2009,06,04,09,24,0.00
2009,06,04,09,25,0.00
2009,06,04,09,26,0.00
2009,06,04,09,27,0.00
2009,06,04,09,28,0.00
2009,06,04,09,29,0.00
2009,06,04,09,30,0.00
2009,06,04,09,31,0.00
2009,06,04,09,32,0.10
2009,06,04,09,33,0.00
2009,06,04,09,34,0.00
2009,06,04,09,35,0.00
2009,06,04,09,36,0.00
2009,06,04,09,37,0.00
2009,06,04,09,38,0.00
2009,06,04,09,39,0.00
2009,06,04,09,40,0.00
2009,06,04,09,41,0.00
2009,06,04,09,42,0.00
2009,06,04,09,43,0.30
2009,06,04,09,44,0.00
2009,06,04,09,45,0.00
2009,06,04,09,46,0.00
2009,06,04,09,47,0.00
2009,06,04,09,48,0.00
2009,06,04,09,49,0.10
2009,06,04,09,50,0.60
2009,06,04,09,51,0.00
2009,06,04,09,52,0.00
2009,06,04,09,53,0.00
2009,06,04,09,54,0.10
2009,06,04,09,55,0.00
2009,06,04,09,56,0.00
2009,06,04,09,57,0.10
2009,06,04,09,58,0.10
2009,06,04,09,59,0.00
2009,06,04,10,00,0.00
2009,06,04,10,01,0.00
2009,06,04,10,02,0.50
2009,06,04,10,03,0.10
2009,06,04,10,04,0.00
2009,06,04,10,05,0.00
2009,06,04,10,06,0.60
2009,06,04,10,07,0.10
2009,06,04,10,08,2.30
2009,06,04,10,09,1.00
2009,06,04,10,10,0.00
2009,06,04,10,11,0.00
2009,06,04,10,12,0.00
2009,06,04,10,13,0.10
2009,06,04,10,14,0.00
2009,06,04,10,15,0.30
2009,06,04,10,16,0.00
2009,06,04,10,17,0.10
2009,06,04,10,18,1.40
2009,06,04,10,19,0.40
2009,06,04,10,20,0.70
2009,06,04,10,21,0.40
2009,06,04,10,22,0.10
2009,06,04,10,23,0.70
2009,06,04,10,24,0.20
2009,06,04,10,25,0.20
2009,06,04,10,26,0.60
2009,06,04,10,27,0.20
2009,06,04,10,28,0.00
2009,06,04,10,29,0.00
2009,06,04,10,30,0.00
2009,06,04,10,31,0.20
2009,06,04,10,32,0.00
2009,06,04,10,33,1.30
2009,06,04,10,34,0.70
2009,06,04,10,35,1.00
2009,06,04,10,36,0.10
2009,06,04,10,37,0.10
2009,06,04,10,38,0.60
2009,06,04,10,39,3.60
2009,06,04,10,40,3.20
2009,06,04,10,41,0.00
2009,06,04,10,42,0.60
2009,06,04,10,43,0.10
2009,06,04,10,44,0.00
2009,06,04,10,45,0.00
2009,06,04,10,46,0.00
2009,06,04,10,47,0.20
2009,06,04,10,48,1.30
2009,06,04,10,49,0.60
2009,06,04,10,50,0.60
2009,06,04,10,51,1.90
2009,06,04,10,52,0.80
2009,06,04,10,53,0.20
2009,06,04,10,54,1.50
2009,06,04,10,55,1.60
2009,06,04,10,56,1.30
2009,06,04,10,57,0.40
2009,06,04,10,58,0.30
2009,06,04,10,59,0.30
2009,06,04,11,00,0.50
2009,06,04,11,01,0.20
2009,06,04,11,02,0.00
2009,06,04,11,03,0.50
2009,06,04,11,04,0.10
2009,06,04,11,05,0.00
2009,06,04,11,06,1.90
2009,06,04,11,07,4.20
2009,06,04,11,08,0.30
2009,06,04,11,09,0.00
2009,06,04,11,10,4.50
2009,06,04,11,11,3.40
2009,06,04,11,12,5.20
2009,06,04,11,13,0.70
2009,06,04,11,14,0.10
2009,06,04,11,15,0.30
2009,06,04,11,16,0.10
2009,06,04,11,17,0.00
2009,06,04,11,18,0.30
2009,06,04,11,19,1.10
2009,06,04,11,20,1.40
2009,06,04,11,21,0.10
2009,06,04,11,22,0.70
2009,06,04,11,23,0.30
2009,06,04,11,24,1.60
2009,06,04,11,25,1.80
2009,06,04,11,26,4.20
2009,06,04,11,27,4.40
2009,06,04,11,28,3.00
2009,06,04,11,29,4.20
2009,06,04,11,30,2.90
2009,06,04,11,31,1.70
2009,06,04,11,32,0.20
2009,06,04,11,33,2.60
2009,06,04,11,34,0.60
2009,06,04,11,35,0.80
2009,06,04,11,36,2.00
2009,06,04,11,37,2.00
2009,06,04,11,38,1.20
2009,06,04,11,39,0.00
2009,06,04,11,40,0.00
2009,06,04,11,41,0.60
2009,06,04,11,42,0.20
2009,06,04,11,43,0.30
2009,06,04,11,44,3.20
2009,06,04,11,45,1.30
2009,06,04,11,46,1.40
2009,06,04,11,47,4.50
2009,06,04,11,48,1.70
2009,06,04,11,49,4.70
2009,06,04,11,50,3.10
2009,06,04,11,51,5.10
2009,06,04,11,52,2.80
2009,06,04,11,53,0.60
2009,06,04,11,54,1.50
2009,06,04,11,55,1.70
2009,06,04,11,56,3.00
2009,06,04,11,57,5.80
2009,06,04,11,58,4.80
2009,06,04,11,59,4.80
2009,06,04,12,00,3.40
2009,06,04,12,01,4.00
2009,06,04,12,02,0.20
2009,06,04,12,03,1.50
2009,06,04,12,04,1.50
2009,06,04,12,05,0.90
2009,06,04,12,06,1.30
2009,06,04,12,07,2.70
2009,06,04,12,08,3.80
2009,06,04,12,09,4.40
2009,06,04,12,10,0.30
2009,06,04,12,11,2.00
2009,06,04,12,12,1.00
2009,06,04,12,13,3.30
2009,06,04,12,14,1.40
2009,06,04,12,15,1.40
2009,06,04,12,16,0.40
2009,06,04,12,17,0.70
2009,06,04,12,18,2.20
2009,06,04,12,19,1.00
2009,06,04,12,20,0.30
2009,06,04,12,21,1.80
2009,06,04,12,22,1.90
2009,06,04,12,23,1.50
2009,06,04,12,24,2.40
2009,06,04,12,25,3.00
2009,06,04,12,26,2.80
2009,06,04,12,27,3.50
2009,06,04,12,28,1.50
2009,06,04,12,29,0.60
2009,06,04,12,30,1.80
2009,06,04,12,31,1.10
2009,06,04,12,32,3.50
2009,06,04,12,33,1.30
2009,06,04,12,34,3.10
2009,06,04,12,35,1.80
2009,06,04,12,36,0.90
2009,06,04,12,37,1.40
2009,06,04,12,38,2.00
2009,06,04,12,39,1.40
2009,06,04,12,40,8.90
2009,06,04,12,41,7.50
2009,06,04,12,42,2.20
2009,06,04,12,43,7.50
2009,06,04,12,44,5.50
2009,06,04,12,45,4.70
2009,06,04,12,46,2.50
2009,06,04,12,47,1.50
2009,06,04,12,48,3.80
2009,06,04,12,49,2.70
2009,06,04,12,50,2.80
2009,06,04,12,51,3.70
2009,06,04,12,52,3.50
2009,06,04,12,53,3.80
2009,06,04,12,54,4.60
2009,06,04,12,55,7.60
2009,06,04,12,56,0.70
2009,06,04,12,57,4.00
2009,06,04,12,58,5.20
2009,06,04,12,59,4.70
2009,06,04,13,00,7.50
2009,06,04,13,01,2.90
2009,06,04,13,02,3.90
2009,06,04,13,03,3.70
2009,06,04,13,04,6.80
2009,06,04,13,05,7.20
2009,06,04,13,06,4.10
2009,06,04,13,07,9.00
2009,06,04,13,08,6.40
2009,06,04,13,09,2.50
2009,06,04,13,10,1.00
2009,06,04,13,11,0.50
2009,06,04,13,12,5.10
2009,06,04,13,13,1.40
2009,06,04,13,14,2.50
2009,06,04,13,15,5.50
2009,06,04,13,16,0.40
2009,06,04,13,17,2.80
2009,06,04,13,18,2.30
2009,06,04,13,19,1.10
2009,06,04,13,20,2.70
2009,06,04,13,21,3.00
2009,06,04,13,22,17.00
2009,06,04,13,23,12.60
2009,06,04,13,24,7.90
2009,06,04,13,25,2.10
2009,06,04,13,26,8.70
2009,06,04,13,27,10.10
2009,06,04,13,28,17.30
2009,06,04,13,29,7.20
2009,06,04,13,30,3.80
2009,06,04,13,31,6.10
2009,06,04,13,32,11.30
2009,06,04,13,33,16.10
2009,06,04,13,34,7.60
2009,06,04,13,35,10.50
2009,06,04,13,36,8.50
2009,06,04,13,37,5.30
2009,06,04,13,38,5.80
2009,06,04,13,39,5.50
2009,06,04,13,40,1.30
2009,06,04,13,41,1.00
2009,06,04,13,42,0.10
2009,06,04,13,43,8.70
2009,06,04,13,44,7.70
2009,06,04,13,45,3.60
2009,06,04,13,46,9.60
2009,06,04,13,47,6.30
2009,06,04,13,48,10.50
2009,06,04,13,49,5.30
2009,06,04,13,50,3.00
2009,06,04,13,51,2.60
2009,06,04,13,52,3.00
2009,06,04,13,53,8.60
2009,06,04,13,54,9.00
2009,06,04,13,55,4.70
2009,06,04,13,56,6.40
2009,06,04,13,57,6.00
2009,06,04,13,58,5.50
2009,06,04,13,59,13.50
2009,06,04,14,00,7.60
2009,06,04,14,01,4.80
2009,06,04,14,02,10.70
2009,06,04,14,03,8.20
2009,06,04,14,04,7.40
2009,06,04,14,05,8.00
2009,06,04,14,06,4.50
2009,06,04,14,07,7.10
2009,06,04,14,08,9.70
2009,06,04,14,09,11.10
2009,06,04,14,10,13.90
2009,06,04,14,11,14.80
2009,06,04,14,12,8.80
2009,06,04,14,13,7.00
2009,06,04,14,14,8.80
2009,06,04,14,15,9.30
2009,06,04,14,16,9.60
2009,06,04,14,17,5.80
2009,06,04,14,18,10.90
2009,06,04,14,19,15.50
2009,06,04,14,20,16.10
2009,06,04,14,21,11.20
2009,06,04,14,22,8.30
2009,06,04,14,23,2.90
2009,06,04,14,24,8.40
2009,06,04,14,25,12.80
2009,06,04,14,26,7.20
2009,06,04,14,27,8.90
2009,06,04,14,28,7.20
2009,06,04,14,29,7.80
2009,06,04,14,30,9.40
2009,06,04,14,31,14.40
2009,06,04,14,32,8.90
2009,06,04,14,33,6.60
2009,06,04,14,34,4.70
2009,06,04,14,35,11.90
2009,06,04,14,36,6.80
2009,06,04,14,37,3.80
2009,06,04,14,38,4.80
2009,06,04,14,39,6.40
2009,06,04,14,40,8.80
2009,06,04,14,41,11.30
2009,06,04,14,42,8.60
2009,06,04,14,43,7.40
2009,06,04,14,44,7.20
2009,06,04,14,45,10.90
2009,06,04,14,46,14.80
2009,06,04,14,47,10.90
2009,06,04,14,48,16.40
2009,06,04,14,49,9.40
2009,06,04,14,50,9.40
2009,06,04,14,51,2.30
2009,06,04,14,52,10.30
2009,06,04,14,53,13.00
2009,06,04,14,54,23.30
2009,06,04,14,55,13.20
2009,06,04,14,56,2.50
2009,06,04,14,57,10.40
2009,06,04,14,58,4.80
2009,06,04,14,59,11.90
2009,06,04,15,00,13.00
2009,06,04,15,01,10.40
2009,06,04,15,02,11.10
2009,06,04,15,03,11.60
2009,06,04,15,04,6.30
2009,06,04,15,05,14.20
2009,06,04,15,06,19.00
2009,06,04,15,07,18.80
2009,06,04,15,08,15.00
2009,06,04,15,09,7.90
2009,06,04,15,10,13.10
2009,06,04,15,11,15.50
2009,06,04,15,12,19.00
2009,06,04,15,13,14.00
2009,06,04,15,14,5.50
2009,06,04,15,15,6.80
2009,06,04,15,16,10.10
2009,06,04,15,17,6.30
2009,06,04,15,18,12.20
2009,06,04,15,19,11.50
2009,06,04,15,20,20.20
2009,06,04,15,21,15.20
2009,06,04,15,22,16.60
2009,06,04,15,23,12.30
2009,06,04,15,24,5.80
2009,06,04,15,25,8.10
2009,06,04,15,26,7.00
2009,06,04,15,27,6.00
2009,06,04,15,28,6.50
2009,06,04,15,29,2.10
2009,06,04,15,30,7.30
2009,06,04,15,31,9.70
2009,06,04,15,32,14.90
2009,06,04,15,33,6.20
2009,06,04,15,34,4.70
2009,06,04,15,35,11.90
2009,06,04,15,36,11.30
2009,06,04,15,37,12.30
2009,06,04,15,38,8.40
2009,06,04,15,39,18.30
2009,06,04,15,40,10.10
2009,06,04,15,41,5.70
2009,06,04,15,42,7.40
2009,06,04,15,43,7.70
2009,06,04,15,44,5.20
2009,06,04,15,45,17.10
2009,06,04,15,46,20.50
2009,06,04,15,47,10.40
2009,06,04,15,48,7.60
2009,06,04,15,49,11.00
2009,06,04,15,50,7.10
2009,06,04,15,51,13.80
2009,06,04,15,52,12.50
2009,06,04,15,53,4.60
2009,06,04,15,54,10.60
2009,06,04,15,55,5.40
2009,06,04,15,56,12.70
2009,06,04,15,57,13.20
2009,06,04,15,58,11.70
2009,06,04,15,59,9.90
2009,06,04,16,00,11.40
2009,06,04,16,01,8.90
2009,06,04,16,02,19.00
2009,06,04,16,03,9.80
2009,06,04,16,04,5.50
2009,06,04,16,05,15.20
2009,06,04,16,06,12.90
2009,06,04,16,07,16.20
2009,06,04,16,08,8.70
2009,06,04,16,09,8.80
2009,06,04,16,10,12.40
2009,06,04,16,11,14.40
2009,06,04,16,12,10.60
2009,06,04,16,13,7.20
2009,06,04,16,14,14.00
2009,06,04,16,15,8.40
2009,06,04,16,16,9.90
2009,06,04,16,17,15.10
2009,06,04,16,18,5.90
2009,06,04,16,19,3.50
2009,06,04,16,20,10.70
2009,06,04,16,21,5.80
2009,06,04,16,22,7.70
2009,06,04,16,23,4.90
2009,06,04,16,24,5.00
2009,06,04,16,25,14.20
2009,06,04,16,26,6.20
2009,06,04,16,27,8.70
2009,06,04,16,28,8.20
2009,06,04,16,29,10.00
2009,06,04,16,30,12.60
2009,06,04,16,31,7.30
2009,06,04,16,32,10.70
2009,06,04,16,33,16.00
2009,06,04,16,34,20.70
2009,06,04,16,35,16.30
2009,06,04,16,36,12.90
2009,06,04,16,37,13.10
2009,06,04,16,38,19.00
2009,06,04,16,39,13.40
2009,06,04,16,40,15.40
2009,06,04,16,41,6.30
2009,06,04,16,42,6.90
2009,06,04,16,43,10.90
2009,06,04,16,44,9.00
2009,06,04,16,45,11.30
2009,06,04,16,46,12.70
2009,06,04,16,47,9.70
2009,06,04,16,48,8.10
2009,06,04,16,49,6.50
2009,06,04,16,50,15.20
2009,06,04,16,51,13.40
2009,06,04,16,52,3.90
2009,06,04,16,53,3.10
2009,06,04,16,54,9.40
2009,06,04,16,55,10.50
2009,06,04,16,56,8.30
2009,06,04,16,57,3.80
2009,06,04,16,58,3.60
2009,06,04,16,59,9.30
2009,06,04,17,00,12.90
2009,06,04,17,01,13.30
2009,06,04,17,02,8.00
2009,06,04,17,03,8.00
2009,06,04,17,04,8.50
2009,06,04,17,05,7.90
2009,06,04,17,06,2.70
2009,06,04,17,07,2.10
2009,06,04,17,08,5.40
2009,06,04,17,09,4.30
2009,06,04,17,10,6.40
2009,06,04,17,11,5.50
2009,06,04,17,12,6.70
2009,06,04,17,13,13.10
2009,06,04,17,14,7.40
2009,06,04,17,15,7.50
2009,06,04,17,16,7.80
2009,06,04,17,17,9.40
2009,06,04,17,18,11.00
2009,06,04,17,19,12.80
2009,06,04,17,20,12.30
2009,06,04,17,21,7.20
2009,06,04,17,22,9.60
2009,06,04,17,23,4.70
2009,06,04,17,24,3.80
2009,06,04,17,25,10.50
2009,06,04,17,26,12.60
2009,06,04,17,27,5.40
2009,06,04,17,28,6.10
2009,06,04,17,29,5.70
2009,06,04,17,30,11.30
2009,06,04,17,31,8.20
2009,06,04,17,32,6.00
2009,06,04,17,33,6.40
2009,06,04,17,34,7.10
2009,06,04,17,35,9.80
2009,06,04,17,36,4.80
2009,06,04,17,37,2.70
2009,06,04,17,38,6.20
2009,06,04,17,39,5.10
2009,06,04,17,40,6.90
2009,06,04,17,41,9.30
2009,06,04,17,42,5.80
2009,06,04,17,43,2.50
2009,06,04,17,44,3.70
2009,06,04,17,45,4.10
2009,06,04,17,46,0.40
2009,06,04,17,47,2.20
2009,06,04,17,48,4.40
2009,06,04,17,49,1.00
2009,06,04,17,50,6.40
2009,06,04,17,51,3.70
2009,06,04,17,52,10.50
2009,06,04,17,53,7.30
2009,06,04,17,54,7.00
2009,06,04,17,55,9.30
2009,06,04,17,56,3.60
2009,06,04,17,57,3.90
2009,06,04,17,58,4.00
2009,06,04,17,59,0.90
2009,06,04,18,00,2.60
2009,06,04,18,01,8.10
2009,06,04,18,02,0.70
2009,06,04,18,03,0.30
2009,06,04,18,04,1.40
2009,06,04,18,05,3.90
2009,06,04,18,06,6.90
2009,06,04,18,07,3.90
2009,06,04,18,08,7.00
2009,06,04,18,09,8.10
2009,06,04,18,10,10.60
2009,06,04,18,11,12.40
2009,06,04,18,12,12.30
2009,06,04,18,13,4.70
2009,06,04,18,14,7.10
2009,06,04,18,15,4.10
2009,06,04,18,16,6.90
2009,06,04,18,17,7.40
2009,06,04,18,18,2.20
2009,06,04,18,19,3.20
2009,06,04,18,20,8.40
2009,06,04,18,21,10.00
2009,06,04,18,22,10.40
2009,06,04,18,23,7.10
2009,06,04,18,24,5.40
2009,06,04,18,25,3.00
2009,06,04,18,26,1.70
2009,06,04,18,27,8.40
2009,06,04,18,28,3.40
2009,06,04,18,29,0.40
2009,06,04,18,30,1.40
2009,06,04,18,31,1.70
2009,06,04,18,32,0.40
2009,06,04,18,33,0.20
2009,06,04,18,34,0.90
2009,06,04,18,35,3.50
2009,06,04,18,36,4.40
2009,06,04,18,37,4.30
2009,06,04,18,38,1.30
2009,06,04,18,39,1.40
2009,06,04,18,40,0.00
2009,06,04,18,41,0.00
2009,06,04,18,42,0.00
2009,06,04,18,43,0.00
2009,06,04,18,44,0.00
2009,06,04,18,45,0.50
2009,06,04,18,46,0.70
2009,06,04,18,47,1.30
2009,06,04,18,48,0.90
2009,06,04,18,49,0.00
2009,06,04,18,50,0.00
2009,06,04,18,51,1.50
2009,06,04,18,52,0.10
2009,06,04,18,53,0.00
2009,06,04,18,54,0.00
2009,06,04,18,55,0.00
2009,06,04,18,56,0.60
2009,06,04,18,57,0.20
2009,06,04,18,58,0.00
2009,06,04,18,59,0.00
2009,06,04,19,00,0.00
2009,06,04,19,01,0.00
2009,06,04,19,02,0.00
2009,06,04,19,03,0.00
2009,06,04,19,04,0.00
2009,06,04,19,05,0.00
2009,06,04,19,06,0.00
2009,06,04,19,07,0.00
2009,06,04,19,08,0.00
2009,06,04,19,09,0.00
2009,06,04,19,10,0.00
2009,06,04,19,11,0.00
2009,06,04,19,12,0.00
2009,06,04,19,13,0.00
2009,06,04,19,14,0.00
